Regional Weather Roundup
Issued by NWS

Home | Current Version | Previous Version | Graphics & Text | Print | Product List | Glossary On
Versions: 1 2 3 4 5 6 7 8 9 10 11 12 13 14 15 16 17 18 19 20 21 22 23 24 25 26 27 28 29 30 31 32 33 34 35 36 37 38 39 40 41 42 43 44 45 46 47 48 49 50
000
ASUS45 KBOU 031707
RWRCO

WEATHER ROUNDUP FOR COLORADO
NATIONAL WEATHER SERVICE DENVER/BOULDER CO
1100 AM MDT SUN MAY 03 2015

NOTE: "FAIR" INDICATES FEW OR NO CLOUDS BELOW 12000 FEET WITH NO
SIGNIFICANT WEATHER AND/OR OBSTRUCTIONS TO VISIBILITY.

COZ001>005-013-030-031-031800-
...NORTHWEST COLORADO...

CITY           SKY/WX    TMP DP  RH WIND       PRES   REMARKS
CRAIG          SUNNY     64  38  38 CALM      30.04S
HAYDEN         SUNNY     63  34  34 CALM      30.05S
MEEKER         SUNNY     68  34  28 VRB3      30.03S
MOUNT WERNER   NOT AVBL
STEAMBOAT SPGS SUNNY     61  36  39 CALM      30.06S
WALDEN         MOSUNNY   55  34  44 S7        30.11S
$$

COZ006>008-011-031800-
...WEST CENTRAL VALLEYS...

CITY           SKY/WX    TMP DP  RH WIND       PRES   REMARKS
GRAND JUNCTION MOSUNNY   69  36  29 CALM      29.98S
MONTROSE       MOSUNNY   71  30  21 CALM      30.05F
EAGLE          MOSUNNY   61  34  36 CALM      30.09F
RIFLE          SUNNY     67  37  33 VRB5      30.02F
DELTA          MOSUNNY   74  32  21 S6        30.02S
NUCLA          MOSUNNY   70  32  24 S12G20    30.12R
$$

COZ017>023-064>068-031800-
...SOUTHWEST COLORADO...

CITY           SKY/WX    TMP DP  RH WIND       PRES   REMARKS
DURANGO        MOSUNNY   63  35  35 W23G32    30.13S
CORTEZ         MOSUNNY   64  38  38 NE6       30.12S
PAGOSA SPRINGS MOSUNNY   61  29  30 S8        30.16F
TELLURIDE      CLOUDY    54  30  39 W7        30.24R
WOLF CREEK PAS NOT AVBL
$$

COZ009-010-012-014-032>034-037-058>063-031800-
...CENTRAL COLORADO...

CITY           SKY/WX    TMP DP  RH WIND       PRES   REMARKS
ASPEN          MOSUNNY   63  30  28 N13       30.10S
BUENA VISTA    NOT AVBL
COPPER MTN     PTSUNNY   45  19  36 W9G18     30.33S
BERTHOUD PASS  PTSUNNY   34  27  75 W13       30.37R WCI  25
COTTONWOOD PAS MOSUNNY   55  34  44 SE6       30.24S
GUNNISON       SUNNY     55  32  41 CALM      30.18F
KREMMLING      SUNNY     59  32  36 SE3       30.12S
LEADVILLE      MOSUNNY   51  23  33 W8        30.21S
MONARCH PASS   MOSUNNY   41  27  56 W8        30.46R
SALIDA         MOSUNNY   62  37  38 CALM      30.19F
SUNLIGHT       PTSUNNY   50  27  40 CALM      30.30S
WILKERSON PASS PTSUNNY   45  23  42 W7        30.34R
$$

COZ069>075-031800-
...SAN LUIS VALLEY/SANGRE DE CRISTO MOUNTAINS...

CITY           SKY/WX    TMP DP  RH WIND       PRES   REMARKS
ALAMOSA        SUNNY     60  36  40 CALM      30.14F
LA VETA PASS   MOSUNNY   54  32  43 MISG      30.27R
SAGUACHE       MOSUNNY   59  34  38 S3        30.17S
$$

COZ035-036-038>040-031800-
...NORTHERN COLORADO FRONT RANGE...

CITY           SKY/WX    TMP DP  RH WIND       PRES   REMARKS
DENVER INTL AP PTSUNNY   73  32  22 NE9       29.99R
DMNS CITY PARK   N/A     74  30  19 NE3       29.98S
AURORA         PTSUNNY   72  31  21 NE2       30.01R
FRONT RANGE AP PTSUNNY   72  34  25 N7        30.01R
ERIE MUNI ARPT PTSUNNY   74  32  21 SE3       29.97R
BOULDER MUN AP PTSUNNY   73  37  27 E6        29.97S
CENTENNIAL     PTSUNNY   71  32  23 N7        30.01R
BROOMFIELD     PTSUNNY   72  34  25 SE3       30.00R
FORT COLLINS   MOSUNNY   72  43  35 SE8       29.98R
LONGMONT       MOSUNNY   75  45  34 E8        29.98R
$$

COZ041-046-047-076>085-087-088-031800-
...PIKES PEAK/PALMER DIVIDE AND SOUTHERN FOOTHILLS...

CITY           SKY/WX    TMP DP  RH WIND       PRES   REMARKS
COLO. SPRINGS  PTSUNNY   74  26  16 VRB6      30.02S
A. F. ACADEMY  PTSUNNY   72  27  18 N12G18    30.03S
ELLICOTT       MOSUNNY  N/A N/A N/A VRB5      30.01S
FALCON         MOSUNNY   71  23  16 N10       30.08R
FORT CARSON    MOSUNNY   73  30  20 VRB6      29.99S
LIMON          SUNNY     75  32  20 N10       29.99R
MONUMENT HILL  MOSUNNY   66  28  24 N7        30.07S
TRINIDAD       MOSUNNY   71  30  21 CALM      30.02R
$$

COZ042>045-048>051-090-091-031800-
...NORTHEAST COLORADO...

CITY           SKY/WX    TMP DP  RH WIND       PRES   REMARKS
GREELEY ARPT   SUNNY     73  43  33 SW5       29.97S
AKRON          SUNNY     73  41  31 N15       29.96S
BURLINGTON     SUNNY     78  41  26 N13       29.93R
WRAY           SUNNY     80  38  22 NW17G23   29.89R
STERLING       SUNNY     73  45  35 NE7       29.92R
HOLYOKE        NOT AVBL
FORT MORGAN    NOT AVBL
$$

COZ086-089-092>099-031800-
...SOUTHEAST COLORADO...

CITY           SKY/WX    TMP DP  RH WIND       PRES   REMARKS
PUEBLO         MOSUNNY   78  32  18 NW9G16    29.93S
LA JUNTA       PTSUNNY   77  42  28 MISG      29.93S
LAMAR          MOSUNNY   74  45  35 W8        29.89F
SPRINGFIELD      N/A     78  35  21 VRB3      29.94R
$$


USA.gov is the U.S. government's official web portal to all federal, state and local government web resources and services.